User: anonymous   Login
Location: Columbia
(38.9520°N, 92.3340°W)
Time: 10:53:00
(UTC-05:00)
Language:

Cosmos 2100 Rocket - Orbit

View from above orbital plane
View from above orbital plane
View from above satellite
View from above satellite

Ground track
Ground track

The orbit data is extracted from the following two-line orbital elements,

1 20805U 90083B   16206.42417810  .00000049  00000-0  34599-4 0  9994
2 20805  82.9390 304.2787 0029635 227.2881 187.1751 13.75807366298335
Epoch (UTC): 24 July 2016 10:10:48
Eccentricity: 0.0029635
inclination: 82.9390°
perigee height: 957 km
apogee height: 1000 km
right ascension of ascending node: 304.2787°
argument of perigee: 227.2881°
revolutions per day: 13.75807366
mean anomaly at epoch: 187.1751°
orbit number at epoch: 29833

The dashed part of the orbit path shows where the satellite is in the earth's shadow,  

DLR